EW6996 Weather Reports


Display with metric or nautical units.
time (UTC)temp
F
wind
direction
speed
MPH
gust
MPH
rain 1hr
in
rain 24hr
in
rain mn
in
humidity
%
barometer
mb
20181018222311 62 131 6.0 20.0 0.00 0.00 0.00 42 1029.4
20181018221810 62 149 9.0 20.0 0.00 0.00 0.00 40 1029.4
20181018221310 63 182 9.0 20.0 0.00 0.00 0.00 40 1029.4
20181018220809 63 155 8.0 20.0 0.00 0.00 0.00 40 1029.4
20181018220311 64 172 6.0 20.0 0.00 0.00 0.00 39 1029.4
20181018215808 65 141 10.0 20.0 0.00 0.00 0.00 37 1029.5
20181018215310 65 165 10.0 20.0 0.00 0.00 0.00 36 1029.5
20181018214808 65 144 5.0 15.0 0.00 0.00 0.00 35 1029.5
20181018214310 65 146 4.0 15.0 0.00 0.00 0.00 35 1029.7
20181018213808 66 140 9.0 15.0 0.00 0.00 0.00 34 1029.8
20181018213309 66 104 9.0 15.0 0.00 0.00 0.00 34 1029.8
20181018212808 66 162 6.0 15.0 0.00 0.00 0.00 33 1029.8
20181018212314 66 133 8.0 13.0 0.00 0.00 0.00 33 1029.8
20181018211809 66 204 6.0 13.0 0.00 0.00 0.00 34 1029.8
20181018211310 66 150 8.0 13.0 0.00 0.00 0.00 33 1029.9
20181018210808 65 142 6.0 15.0 0.00 0.00 0.00 32 1029.9
20181018210309 65 157 6.0 15.0 0.00 0.00 0.00 33 1029.9
20181018205807 65 110 5.0 15.0 0.00 0.00 0.00 32 1030.0
20181018205309 65 140 4.0 15.0 0.00 0.00 0.00 32 1029.9
20181018204807 64 156 5.0 15.0 0.00 0.00 0.00 33 1029.9
20181018204308 64 147 6.0 15.0 0.00 0.00 0.00 33 1030.0
20181018203807 65 170 9.0 15.0 0.00 0.00 0.00 33 1030.0
20181018203308 65 134 9.0 15.0 0.00 0.00 0.00 32 1030.1
20181018202806 65 129 2.0 13.0 0.00 0.00 0.00 33 1030.1
20181018202308 65 154 5.0 15.0 0.00 0.00 0.00 32 1030.2
20181018201806 65 155 6.0 15.0 0.00 0.00 0.00 33 1030.4
20181018201311 65 149 8.0 15.0 0.00 0.00 0.00 33 1030.5
20181018200806 66 148 8.0 15.0 0.00 0.00 0.00 33 1030.6
20181018200310 66 105 2.0 15.0 0.00 0.00 0.00 36 1030.6
20181018195807 67 113 12.0 15.0 0.00 0.00 0.00 34 1030.7
20181018195308 67 149 8.0 15.0 0.00 0.00 0.00 33 1030.8
20181018194806 67 141 9.0 15.0 0.00 0.00 0.00 30 1030.8
20181018194308 67 165 6.0 13.0 0.00 0.00 0.00 24 1031.1
20181018193806 67 101 2.0 13.0 0.00 0.00 0.00 23 1031.1
20181018193308 67 193 4.0 17.0 0.00 0.00 0.00 24 1031.2
20181018192805 66 200 6.0 17.0 0.00 0.00 0.00 25 1031.3
20181018192306 66 182 6.0 15.0 0.00 0.00 0.00 25 1031.3
20181018191805 66 130 4.0 17.0 0.00 0.00 0.00 24 1031.4
20181018191309 66 263 12.0 17.0 0.00 0.00 0.00 24 1031.4
20181018190805 65 247 5.0 17.0 0.00 0.00 0.00 25 1031.7
20181018190307 65 260 8.0 17.0 0.00 0.00 0.00 24 1031.8
20181018185805 65 267 4.0 15.0 0.00 0.00 0.00 25 1031.9
20181018185307 65 187 6.0 13.0 0.00 0.00 0.00 25 1031.9
20181018184804 64 84 1.0 15.0 0.00 0.00 0.00 24 1032.0
20181018184308 64 47 1.0 23.0 0.00 0.00 0.00 23 1032.3
20181018183804 64 207 4.0 23.0 0.00 0.00 0.00 25 1032.4
20181018183306 64 212 10.0 15.0 0.00 0.00 0.00 26 1032.5
20181018182805 64 252 9.0 13.0 0.00 0.00 0.00 27 1032.5
20181018182305 64 199 6.0 13.0 0.00 0.00 0.00 28 1032.8
20181018181804 64 308 4.0 17.0 0.00 0.00 0.00 28 1032.9
20181018181307 64 263 9.0 17.0 0.00 0.00 0.00 28 1033.0
20181018180804 63 215 9.0 15.0 0.00 0.00 0.00 28 1033.0
20181018180305 63 194 4.0 15.0 0.00 0.00 0.00 28 1033.1
20181018175804 63 260 10.0 17.0 0.00 0.00 0.00 28 1033.1
20181018175306 62 100 4.0 17.0 0.00 0.00 0.00 29 1033.2
20181018174804 62 233 8.0 15.0 0.00 0.00 0.00 30 1033.3
20181018174305 62 151 2.0 20.0 0.00 0.00 0.00 31 1033.5
20181018173803 62 173 11.0 20.0 0.00 0.00 0.00 32 1033.5
20181018173305 62 179 5.0 17.0 0.00 0.00 0.00 33 1033.6
20181018172802 62 246 11.0 17.0 0.00 0.00 0.00 33 1033.7
20181018172304 61 209 9.0 17.0 0.00 0.00 0.00 32 1033.7
20181018171803 61 220 10.0 17.0 0.00 0.00 0.00 32 1033.8
20181018171305 61 173 4.0 17.0 0.00 0.00 0.00 33 1033.8
20181018170803 61 184 8.0 17.0 0.00 0.00 0.00 33 1033.9
20181018170305 61 184 11.0 15.0 0.00 0.00 0.00 34 1034.1
20181018165802 61 131 2.0 15.0 0.00 0.00 0.00 35 1034.2
20181018165304 60 120 2.0 15.0 0.00 0.00 0.00 35 1034.2
20181018164802 60 183 9.0 15.0 0.00 0.00 0.00 37 1034.3
20181018164303 59 161 9.0 13.0 0.00 0.00 0.00 39 1034.4
20181018163802 58 156 5.0 13.0 0.00 0.00 0.00 44 1034.4
20181018163304 58 144 5.0 10.0 0.00 0.00 0.00 45 1034.5
20181018162800 57 121 1.0 10.0 0.00 0.00 0.00 47 1034.8
20181018162303 57 112 1.0 10.0 0.00 0.00 0.00 48 1034.8
20181018161801 56 89 2.0 10.0 0.00 0.00 0.00 48 1034.8
20181018161303 55 126 5.0 10.0 0.00 0.00 0.00 50 1034.9
20181018160801 55 131 5.0 13.0 0.00 0.00 0.00 51 1035.0
20181018160303 54 169 12.0 13.0 0.00 0.00 0.00 53 1034.9
20181018155801 53 175 6.0 15.0 0.00 0.00 0.00 54 1035.0
20181018155302 53 132 5.0 15.0 0.00 0.00 0.00 54 1035.1
20181018154801 52 135 6.0 13.0 0.00 0.00 0.00 55 1035.0
20181018154302 51 125 6.0 13.0 0.00 0.00 0.00 58 1035.1
20181018153800 50 154 5.0 13.0 0.00 0.00 0.00 59 1035.3
20181018153302 49 130 4.0 13.0 0.00 0.00 0.00 61 1035.1
20181018152800 49 142 3.0 13.0 0.00 0.00 0.00 62 1035.3
20181018152302 48 127 2.0 13.0 0.00 0.00 0.00 63 1035.3
20181018151800 47 128 2.0 15.0 0.00 0.00 0.00 66 1035.3
20181018151302 46 109 4.0 15.0 0.00 0.00 0.00 67 1035.4
20181018150801 46 134 5.0 13.0 0.00 0.00 0.00 67 1035.4
20181018150302 45 143 10.0 15.0 0.00 0.00 0.00 70 1035.5
20181018145800 44 139 4.0 17.0 0.00 0.00 0.00 72 1035.4
20181018145300 44 169 12.0 17.0 0.00 0.00 0.00 71 1035.3
20181018144759 44 169 8.0 17.0 0.00 0.00 0.00 72 1035.4
20181018144301 43 145 6.0 17.0 0.00 0.00 0.00 74 1035.5
20181018143758 43 169 11.0 17.0 0.00 0.00 0.00 74 1035.4
20181018143300 43 169 10.0 15.0 0.00 0.00 0.00 74 1035.5
20181018142759 42 184 9.0 13.0 0.00 0.00 0.00 75 1035.5
20181018142301 42 156 6.0 13.0 0.00 0.00 0.00 77 1035.5
20181018141800 42 161 6.0 13.0 0.00 0.00 0.00 79 1035.6
20181018141306 41 171 9.0 13.0 0.00 0.00 0.00 80 1035.5
20181018140758 41 134 6.0 15.0 0.00 0.00 0.00 81 1035.7
20181018140300 40 159 6.0 15.0 0.00 0.00 0.00 82 1035.6
20181018135801 40 164 7.0 15.0 0.00 0.00 0.00 82 1035.6
20181018135303 40 155 9.0 17.0 0.00 0.00 0.00 83 1035.6
20181018134800 40 149 10.0 20.0 0.00 0.00 0.00 84 1035.5
20181018134300 39 164 12.0 20.0 0.00 0.00 0.00 85 1035.6
20181018133759 39 173 6.0 15.0 0.00 0.00 0.00 86 1035.5
20181018133300 39 174 9.0 15.0 0.00 0.00 0.00 87 1035.6
20181018132758 38 163 6.0 15.0 0.00 0.00 0.00 88 1035.6
20181018132300 38 129 3.0 15.0 0.00 0.00 0.00 89 1035.6
20181018131800 38 170 9.0 13.0 0.00 0.00 0.00 89 1035.7
20181018131259 38 197 9.0 13.0 0.00 0.00 0.00 89 1035.6
20181018130758 38 136 6.0 13.0 0.00 0.00 0.00 90 1035.6
20181018130257 38 166 6.0 10.0 0.00 0.00 0.00 89 1035.6
20181018125800 38 165 6.0 13.0 0.00 0.00 0.00 89 1035.6
20181018125259 39 147 6.0 13.0 0.00 0.00 0.00 89 1035.6
20181018124757 39 138 4.0 13.0 0.00 0.00 0.00 89 1035.5
20181018124259 39 149 9.0 13.0 0.00 0.00 0.00 89 1035.5
20181018123759 39 166 5.0 13.0 0.00 0.00 0.00 88 1035.6
20181018123258 39 158 5.0 15.0 0.00 0.00 0.00 89 1035.6
20181018122800 39 137 10.0 15.0 0.00 0.00 0.00 89 1035.5
20181018122300 39 177 6.0 15.0 0.00 0.00 0.00 89 1035.5
20181018121759 39 146 8.0 13.0 0.00 0.00 0.00 89 1035.5
20181018121259 39 144 4.0 13.0 0.00 0.00 0.00 89 1035.6
20181018120756 39 140 3.0 10.0 0.00 0.00 0.00 89 1035.4
20181018120255 39 109 1.0 10.0 0.00 0.00 0.00 89 1035.5
20181018115754 39 124 1.0 10.0 0.00 0.00 0.00 89 1035.5
20181018115258 39 149 4.0 13.0 0.00 0.00 0.00 89 1035.5
20181018114756 39 159 7.0 13.0 0.00 0.00 0.00 88 1035.6
20181018114259 39 162 6.0 10.0 0.00 0.00 0.00 88 1035.7
20181018113755 39 127 5.0 10.0 0.00 0.00 0.00 88 1035.9
20181018113257 39 125 7.0 13.0 0.00 0.00 0.00 88 1035.7
20181018112758 40 184 7.0 13.0 0.00 0.00 0.00 86 1035.7
20181018112302 40 134 4.0 13.0 0.00 0.00 0.00 86 1035.7
20181018111755 40 147 6.0 15.0 0.00 0.00 0.00 86 1035.9
20181018111300 40 137 6.0 15.0 0.00 0.00 0.00 86 1035.7
20181018110754 40 140 7.0 13.0 0.00 0.00 0.00 85 1035.7
20181018110256 40 149 8.0 15.0 0.00 0.00 0.00 85 1035.7
20181018105758 40 163 10.0 15.0 0.00 0.00 0.00 85 1035.7
20181018105259 40 142 6.0 15.0 0.00 0.00 0.00 85 1035.9
20181018104756 40 171 9.0 15.0 0.00 0.00 0.00 85 1035.9
20181018104259 40 171 7.0 13.0 0.00 0.00 0.00 85 1035.9
20181018103755 40 162 6.0 13.0 0.00 0.00 0.00 85 1035.9
20181018103255 40 177 9.0 10.0 0.00 0.00 0.00 85 1035.9
20181018102802 40 195 6.0 13.0 0.00 0.00 0.00 84 1035.9
20181018102255 40 147 7.0 15.0 0.00 0.00 0.00 84 1035.7
20181018101758 40 146 9.0 15.0 0.00 0.00 0.00 84 1035.9
20181018101255 40 133 4.0 10.0 0.00 0.00 0.00 84 1036.0
20181018100753 41 164 8.0 10.0 0.00 0.00 0.00 84 1035.9
20181018100256 41 147 4.0 10.0 0.00 0.00 0.00 84 1036.0
20181018095753 41 135 6.0 15.0 0.00 0.00 0.00 83 1036.0
20181018095257 41 139 4.0 15.0 0.00 0.00 0.00 82 1036.1
20181018094755 41 154 8.0 15.0 0.00 0.00 0.00 82 1036.2
20181018094255 41 127 11.0 15.0 0.00 0.00 0.00 81 1036.1
20181018093752 41 150 5.0 10.0 0.00 0.00 0.00 81 1036.2
20181018093257 41 145 8.0 15.0 0.00 0.00 0.00 81 1036.1
20181018092754 41 136 9.0 15.0 0.00 0.00 0.00 81 1036.2
20181018092302 42 187 10.0 15.0 0.00 0.00 0.00 81 1036.4
20181018091754 42 145 9.0 10.0 0.00 0.00 0.00 81 1036.4
20181018091253 42 168 6.0 15.0 0.00 0.00 0.00 80 1036.6
20181018090750 42 140 4.0 17.0 0.00 0.00 0.00 80 1036.4
20181018090253 42 131 6.0 17.0 0.00 0.00 0.00 80 1036.4
20181018085751 42 146 6.0 15.0 0.00 0.00 0.00 80 1036.4
20181018085256 42 120 7.0 13.0 0.00 0.00 0.00 80 1036.6
20181018084751 42 133 2.0 8.0 0.00 0.00 0.00 80 1036.9
20181018084253 42 129 2.0 8.0 0.00 0.00 0.00 80 1036.9
20181018083755 42 204 4.0 13.0 0.00 0.00 0.00 80 1037.0
20181018083255 42 152 6.0 13.0 0.00 0.00 0.00 80 1036.9
20181018082749 42 134 4.0 10.0 0.00 0.00 0.00 80 1036.9
20181018082256 42 139 2.0 10.0 0.00 0.00 0.00 80 1036.9
20181018081750 42 151 4.0 10.0 0.00 0.00 0.00 80 1036.8
20181018081250 42 165 4.0 17.0 0.00 0.00 0.00 80 1036.9
20181018080754 42 130 5.0 17.0 0.00 0.00 0.00 79 1037.0
20181018080251 42 131 7.0 10.0 0.00 0.00 0.00 77 1036.9
20181018075748 42 155 4.0 15.0 0.00 0.00 0.00 76 1037.2
20181018075251 42 152 6.0 15.0 0.00 0.00 0.00 75 1037.0
20181018074751 42 132 9.0 13.0 0.00 0.00 0.00 76 1037.2
20181018074300 42 155 5.0 15.0 0.00 0.00 0.00 76 1037.4
20181018073752 42 172 8.0 15.0 0.00 0.00 0.00 78 1037.3
20181018073256 42 157 8.0 15.0 0.00 0.00 0.00 79 1037.3
20181018072755 42 153 7.0 13.0 0.00 0.00 0.00 79 1037.3
20181018072300 42 135 6.0 13.0 0.00 0.00 0.00 79 1037.3
20181018071749 42 156 6.0 17.0 0.00 0.00 0.00 79 1037.4
20181018071252 42 145 6.0 17.0 0.00 0.00 0.00 79 1037.3
20181018070748 42 142 8.0 15.0 0.00 0.00 0.00 79 1037.4
20181018070252 42 154 8.0 13.0 0.00 0.00 0.00 79 1037.5
20181018065749 42 152 7.0 13.0 0.00 0.00 0.00 79 1037.6
20181018065251 42 145 5.0 17.0 0.00 0.00 0.00 78 1037.6
20181018064749 42 153 7.0 17.0 0.00 0.00 0.00 78 1037.8
20181018064249 42 151 8.0 15.0 0.00 0.00 0.00 78 1037.9
20181018063750 42 111 8.0 15.0 0.00 0.00 0.00 78 1037.9
20181018063250 42 113 5.0 13.0 0.00 0.00 0.00 78 1038.0
20181018062748 42 145 6.0 13.0 0.00 0.00 0.00 77 1038.1
20181018062253 43 158 8.0 10.0 0.00 0.00 0.00 77 1038.2
20181018061748 43 153 6.0 15.0 0.00 0.00 0.00 76 1038.2
20181018061252 43 181 11.0 15.0 0.00 0.00 0.00 74 1038.4
20181018060748 43 145 6.0 15.0 0.00 0.00 0.00 75 1038.2
20181018060249 43 134 6.0 13.0 0.00 0.00 0.00 76 1038.2
20181018055746 43 139 8.0 13.0 0.00 0.00 0.00 77 1038.2
20181018055252 43 108 6.0 13.0 0.00 0.00 0.00 76 1038.4
20181018054747 43 152 6.0 13.0 0.00 0.00 0.00 77 1038.5
20181018054254 43 151 8.0 13.0 0.00 0.00 0.00 75 1038.6
20181018053747 43 175 7.0 13.0 0.00 0.00 0.00 76 1038.6
20181018053247 43 174 6.0 13.0 0.00 0.00 0.00 75 1038.7
20181018052745 43 164 7.0 13.0 0.00 0.00 0.00 74 1038.7
20181018052250 43 155 5.0 13.0 0.00 0.00 0.00 74 1038.6
20181018051746 43 168 7.0 10.0 0.00 0.00 0.00 73 1038.6
20181018051248 44 148 6.0 13.0 0.00 0.00 0.00 73 1038.7
20181018050749 44 151 6.0 13.0 0.00 0.00 0.00 73 1038.7
20181018050255 44 150 5.0 15.0 0.00 0.00 0.00 72 1038.7
20181018045747 44 159 8.0 15.0 0.00 0.00 0.00 72 1038.7
20181018045250 44 155 6.0 15.0 0.00 0.00 0.00 72 1038.7
20181018044747 44 161 6.0 15.0 0.00 0.00 0.00 72 1038.8
20181018044257 44 145 4.0 15.0 0.00 0.00 0.00 71 1038.8
20181018043746 45 118 2.0 13.0 0.00 0.00 0.00 71 1039.0
20181018043248 45 133 3.0 17.0 0.00 0.00 0.00 70 1039.1
20181018042748 45 173 5.0 17.0 0.00 0.00 0.00 70 1039.1
20181018042248 45 160 8.0 15.0 0.00 0.00 0.00 70 1039.2
20181018041744 45 165 6.0 15.0 0.00 0.00 0.00 69 1039.2
20181018041250 45 161 6.0 15.0 0.00 0.00 0.00 69 1039.3
20181018040758 45 147 7.0 17.0 0.00 0.00 0.00 69 1039.3
20181018040250 45 164 9.0 17.0 0.00 0.00 0.00 69 1039.3
20181018035756 46 202 10.0 15.0 0.00 0.00 0.00 68 1039.4
20181018035257 46 166 12.0 15.0 0.00 0.00 0.00 68 1039.4
20181018034744 46 180 12.0 17.0 0.00 0.00 0.00 68 1039.4
20181018034247 46 188 9.0 17.0 0.00 0.00 0.00 68 1039.4
20181018033743 46 174 8.0 17.0 0.00 0.00 0.00 68 1039.4
20181018033247 46 155 6.0 17.0 0.00 0.00 0.00 67 1039.4
20181018032745 46 182 10.0 13.0 0.00 0.00 0.00 66 1039.4
20181018032258 46 199 8.0 17.0 0.00 0.00 0.00 66 1039.4
20181018031742 47 166 8.0 17.0 0.00 0.00 0.00 65 1039.3
20181018031245 47 140 6.0 17.0 0.00 0.00 0.00 65 1039.2
20181018030743 47 144 7.0 13.0 0.00 0.00 0.00 64 1039.2
20181018030246 47 160 8.0 13.0 0.00 0.00 0.00 64 1039.1
20181018025742 47 141 8.0 15.0 0.00 0.00 0.00 63 1039.1
20181018025244 47 142 4.0 15.0 0.00 0.00 0.00 63 1039.2
20181018024742 47 138 6.0 13.0 0.00 0.00 0.00 63 1039.2
20181018024247 48 162 9.0 15.0 0.00 0.00 0.00 62 1039.2
20181018023741 48 163 9.0 17.0 0.00 0.00 0.00 62 1039.2
20181018023244 48 149 6.0 17.0 0.00 0.00 0.00 61 1039.2
20181018022742 48 170 9.0 15.0 0.00 0.00 0.00 60 1039.2
20181018022243 48 142 10.0 15.0 0.00 0.00 0.00 60 1039.2
20181018021741 48 176 9.0 17.0 0.00 0.00 0.00 58 1039.1
20181018021246 48 140 4.0 23.0 0.00 0.00 0.00 57 1039.2
20181018020741 49 132 13.0 23.0 0.00 0.00 0.00 57 1039.2
20181018020243 49 124 5.0 20.0 0.00 0.00 0.00 57 1039.2
20181018015740 49 174 10.0 20.0 0.00 0.00 0.00 56 1039.2
20181018015243 49 174 6.0 15.0 0.00 0.00 0.00 56 1039.3
20181018014740 49 156 9.0 15.0 0.00 0.00 0.00 56 1039.3
20181018014241 49 155 9.0 15.0 0.00 0.00 0.00 56 1039.3
20181018013740 49 155 6.0 15.0 0.00 0.00 0.00 56 1039.2
20181018013242 49 161 6.0 15.0 0.00 0.00 0.00 55 1039.2
20181018012740 49 142 4.0 20.0 0.00 0.00 0.00 55 1039.2
20181018012245 49 141 5.0 20.0 0.00 0.00 0.00 54 1039.1
20181018011740 49 129 5.0 15.0 0.00 0.00 0.00 54 1039.0
20181018011241 49 165 7.0 15.0 0.00 0.00 0.00 54 1039.1
20181018010740 49 176 10.0 15.0 0.00 0.00 0.00 53 1039.0
20181018010242 49 152 8.0 13.0 0.00 0.00 0.00 53 1039.1
20181018005741 49 135 6.0 17.0 0.00 0.00 0.00 53 1039.1
20181018005241 49 175 6.0 17.0 0.00 0.00 0.00 53 1039.0
20181018004739 50 139 4.0 15.0 0.00 0.00 0.00 53 1039.0
20181018004243 50 172 10.0 15.0 0.00 0.00 0.00 53 1038.8
20181018003739 50 121 2.0 15.0 0.00 0.00 0.00 53 1038.8
20181018003241 50 165 12.0 15.0 0.00 0.00 0.00 53 1038.8
20181018002738 50 130 10.0 15.0 0.00 0.00 0.00 52 1038.7
20181018002241 51 153 8.0 15.0 0.00 0.00 0.00 51 1038.7
20181018001739 51 126 4.0 17.0 0.00 0.00 0.00 51 1038.8
20181018001240 51 160 14.0 17.0 0.00 0.00 0.00 51 1038.8
20181018000739 51 129 6.0 17.0 0.00 0.00 0.00 50 1039.0
20181018000242 52 158 7.0 17.0 0.00 0.00 0.00 50 1038.8
20181017235738 52 155 10.0 17.0 0.00 0.00 0.00 49 1038.8
20181017235240 52 145 3.0 17.0 0.00 0.00 0.00 47 1038.8
20181017234738 53 160 8.0 17.0 0.00 0.00 0.00 46 1038.7
20181017234240 53 155 8.0 17.0 0.00 0.00 0.00 45 1038.8
20181017233738 53 170 5.0 17.0 0.00 0.00 0.00 45 1038.8
20181017233240 54 163 10.0 20.0 0.00 0.00 0.00 44 1038.7
20181017232737 54 199 12.0 20.0 0.00 0.00 0.00 43 1038.8
20181017232239 54 151 13.0 20.0 0.00 0.00 0.00 43 1038.7
20181017231738 55 125 5.0 17.0 0.00 0.00 0.00 42 1038.6
20181017231239 55 153 7.0 17.0 0.00 0.00 0.00 42 1038.6
20181017230737 55 139 7.0 17.0 0.00 0.00 0.00 41 1038.7
20181017230239 55 151 11.0 15.0 0.00 0.00 0.00 40 1038.7
20181017225736 56 187 11.0 17.0 0.00 0.00 0.00 41 1038.8
20181017225239 56 131 10.0 17.0 0.00 0.00 0.00 40 1038.7
20181017224737 56 136 9.0 17.0 0.00 0.00 0.00 40 1038.7
20181017224238 57 156 10.0 17.0 0.00 0.00 0.00 39 1038.8
20181017223736 57 156 6.0 17.0 0.00 0.00 0.00 39 1038.7
20181017223237 57 151 9.0 17.0 0.00 0.00 0.00 37 1038.7